[Iaude] MPEC G133: 2024 GM2 [a=1.06,e=0.13,i=29.0,H=23.1]
    mpec at cfa.harvard.edu 
    mpec at cfa.harvard.edu
       
    Wed Apr 10 07:19:51 EDT 2024
    
    
  
M.P.E.C. 2024-G133                               Issued 2024 April 10, 11:18 UT
     The Minor Planet Electronic Circulars contain information on unusual
         minor planets, routine data on comets and natural satellites,
         and occasional editorial announcements.  They are published
    on behalf of Division F of the International Astronomical Union by the
          Minor Planet Center, Smithsonian Astrophysical Observatory,
                          Cambridge, MA 02138, U.S.A.
			  
             Prepared using the Tamkin Foundation Computer Network
                              MPC at CFA.HARVARD.EDU
            URL https://www.minorplanetcenter.net/    ISSN 1523-6714
                                    2024 GM2                                    
Observations:
     K24G02M* C2024 04 08.54649814 14 59.695+15 58 51.99         21.00wXEG133F51
     K24G02M  C2024 04 08.57016614 14 48.644+15 57 03.47         21.13wXEG133F51
     K24G02M  C2024 04 08.58201614 14 43.092+15 56 09.06         21.17wXEG133F51
     K24G02M hC2024 04 08.95431814 11 56.53 +15 27 20.5          20.5 GVEG133L01
     K24G02M hC2024 04 08.95684314 11 55.30 +15 27 09.4          20.6 GVEG133L01
     K24G02M hC2024 04 08.95936814 11 54.14 +15 26 57.3          20.6 GVEG133L01
     K24G02M hC2024 04 08.96194314 11 52.91 +15 26 45.8          20.5 GVEG133L01
     K24G02M hC2024 04 08.96599114 11 50.96 +15 26 25.9          20.6 GVEG133L01
     K24G02M KC2024 04 09.18125214 10 13.61 +15 09 42.7          20.6 GVEG133H21
     K24G02M KC2024 04 09.18684414 10 11.02 +15 09 16.8          20.9 GVEG133H21
     K24G02M KC2024 04 09.19103714 10 09.07 +15 08 57.4          21.3 GVEG133H21
     K24G02M KC2024 04 09.19383314 10 07.76 +15 08 44.5          21.0 GVEG133H21
     K24G02M KC2024 04 09.94757814 04 20.172+14 08 31.31         20.5 GVEG133J95
     K24G02M KC2024 04 09.95570214 04 16.356+14 07 51.85         20.6 GVEG133J95
     K24G02M KC2024 04 09.96433014 04 12.288+14 07 09.55         20.4 GVEG133J95
     K24G02M 1C2024 04 10.38920014 00 52.974+13 32 35.16         20.76GVEG133G96
     K24G02M 1C2024 04 10.39442614 00 50.386+13 32 08.52         21.00GVEG133G96
     K24G02M 1C2024 04 10.39964914 00 47.876+13 31 42.24         21.09GVEG133G96
     K24G02M 1C2024 04 10.40486514 00 45.418+13 31 17.15         21.03GVEG133G96
     K24G02M KC2024 04 10.42627 14 00 35.13 +13 29 30.6          20.7 RVEG133691
     K24G02M KC2024 04 10.43153 14 00 32.58 +13 29 04.2          21.0 RVEG133691
     K24G02M KC2024 04 10.43680 14 00 30.09 +13 28 38.2          20.6 RVEG133691
Observer details:
691 Steward Observatory, Kitt Peak-Spacewatch.  Observer R. A. Mastaler.
    0.9-m f/3 reflector + CCD.
F51 Pan-STARRS 1, Haleakala.  Observers J. Herman, T. Lowe, P. Minguez, A.
    Schultz, I. Smith.  Measurers K. Chambers, T. de Boer, J. Fairlamb, H.
    Gao, M. Huber, C.-C. Lin, E. Magnier, Y. Ramanjooloo, R. Wainscoat, R.
    Weryk.  1.8-m Ritchey-Chretien + CCD.
G96 Mt. Lemmon Survey.  Observer A. D. Grauer.  Measurers T. Beuden, V. F.
    Carvajal, D. Fay, J. B. Fazekas, D. C. Fuls, A. R. Gibbs, A. D. Grauer, H.
    Groeller, J. K. Hogan, R. A. Kowalski, S. M. Larson, G. J. Leonard, D.
    Rankin, R. L. Seaman, F. C. Shelly, K. W. Wierzchos.  1.5-m reflector +
    10K CCD.
H21 Astronomical Research Observatory, Westfield.  Observer R. Holmes.
    Measurers T. Linder, R. Holmes, L. Horn.  0.76-m f/3.0 astrograph + CCD.
J95 Great Shefford.  Observer P. Birtwhistle.  0.41-m f/6.3 Schmidt-Cassegrain
    + CCD.
L01 Visnjan Observatory, Tican.  Observer K. Korlevic.  1.0-m f/2.9 reflector
    + CCD.
Orbital elements:
2024 GM2                                                 Earth MOID = 0.0714 AU
Epoch 2024 Mar. 31.0 TT = JDT 2460400.5                 Veres                   
M 141.34309              (2000.0)            P               Q                  
n   0.90550494     Peri.   14.83208     +0.74801469     -0.62333240             
a   1.0581376      Node    28.03556     +0.54880551     +0.38785150             
e   0.1309226      Incl.   29.00184     +0.37321111     +0.67899038             
P   1.09           H   23.17          G   0.15           U   8                  
Residuals in seconds of arc
240408 F51  0.2-  0.1-    240409 H21 (0.7-  0.3-)   240410 G96  0.6-  0.4-
240408 F51  0.1+  0.1-    240409 H21  0.1-  0.1-    240410 G96  0.5-  0.6-
240408 F51  0.1-  0.0     240409 H21  0.2+  0.0     240410 G96  0.3+  0.3+
240408 L01  0.5+  0.3+    240409 H21  0.2+  0.2+    240410 691  0.3+  0.2+
240408 L01  0.2-  0.9+    240409 J95  0.8-  0.1+    240410 691  0.0   0.1+
240408 L01  0.1+  0.4+    240409 J95  0.3-  0.0     240410 691  0.6+  0.4+
240408 L01  0.2-  0.9+    240409 J95  0.1+  0.5-
240408 L01  1.0-  0.3-    240410 G96  0.4+  0.3+
Ephemeris:
2024 GM2                 a,e,i = 1.06, 0.13, 29                  q = 0.9196
Date    TT    R. A. (2000) Decl.     Delta      r    Elong.  Phase     V
2024 03 11    16 18 48.8 +31 40 25   0.3578  1.1454   106.1    56.4    23.3
...
2024 03 26    15 36 22.6 +27 18 36   0.2633  1.1665   124.4    44.9    22.3
...
2024 04 03    14 53 44.6 +21 57 13   0.2207  1.1757   139.1    33.8    21.6
...
2024 04 09    14 11 35.4 +15 24 14   0.1986  1.1815   152.6    23.0    21.1
2024 04 10    14 03 55.2 +14 04 48   0.1961  1.1824   154.9    21.1    21.0
2024 04 11    13 56 08.0 +12 41 46   0.1940  1.1832   157.0    19.3    21.0
...
2024 04 17    13 08 40.5 +03 31 25   0.1903  1.1878   163.9    13.6    20.7
...
2024 04 25    12 11 47.9 -08 29 17   0.2092  1.1924   150.5    24.6    21.3
...
2024 05 10    11 05 48.1 -22 50 59   0.2940  1.1966   123.3    44.9    22.6
M. P. C. Staff               (C) Copyright 2024 MPC           M.P.E.C. 2024-G133
    
    
More information about the Iaude
mailing list